GFSNE_con_lsi_108.txt.gz
Lid_Strength_Index
12 12 12 12 12 12 12 12 13 16 16 13 12 10 9 8 7 6 7 4 2 3 3 3 2 2 2 2 2 2 2 2 2 2 2 2 1 0
12 12 13 12 12 12 13 13 13 14 15 12 11 10 8 6 6 5 6 3 2 2 2 2 2 1 1 1 1 1 1 1 1 2 2 2 1 1
12 12 12 12 12 12 13 13 12 12 13 11 10 9 10 9 8 8 8 8 8 3 2 2 2 2 2 1 1 1 1 0 0 0 0 1 1 1
12 12 12 10 12 12 12 11 11 12 12 13 12 11 11 10 10 10 8 7 8 5 3 2 2 2 2 2 1 1 1 1 1 1 0 -0 -0 -0
12 11 11 11 11 11 11 11 11 10 12 13 12 11 11 10 10 9 9 8 6 4 3 3 2 2 2 1 1 1 1 1 1 1 0 0 0 0
10 10 10 10 11 11 10 11 10 11 12 12 12 12 11 9 10 9 9 8 8 6 4 3 2 2 1 1 1 1 1 1 1 1 1 1 1 1
10 9 9 9 6 7 8 9 11 11 11 11 10 9 8 8 8 8 8 7 7 7 7 6 6 6 6 3 3 2 2 1 1 1 1 1 1 1
9 9 10 6 7 4 4 5 6 9 9 9 9 9 8 8 7 7 7 8 9 6 7 8 6 7 6 6 3 3 2 2 2 2 1 1 1 1
10 11 11 9 8 10 8 6 6 5 6 8 9 8 8 7 7 7 7 8 8 6 6 7 7 7 6 5 3 2 2 2 1 1 1 1 1 1
11 11 11 11 11 9 10 10 10 9 9 9 9 8 9 7 7 7 7 7 6 5 5 7 5 6 6 6 3 2 2 2 1 1 1 1 1 1
10 10 11 11 7 6 8 9 8 8 6 5 5 4 4 4 4 6 8 8 8 7 5 6 6 5 5 5 5 2 2 2 2 2 2 1 1 1
11 10 7 8 6 6 8 9 10 10 10 9 7 7 6 6 5 7 7 8 8 9 7 7 7 6 7 4 4 4 5 3 3 2 2 2 2 2
9 9 10 7 6 6 6 8 8 8 7 7 8 8 8 8 8 7 8 8 9 9 5 5 6 6 7 6 4 4 5 6 6 5 3 3 3 2
9 9 9 7 6 6 6 6 6 7 9 11 11 11 10 9 9 8 8 8 8 7 6 6 7 7 7 7 6 4 4 5 6 6 6 4 3 3
9 8 7 7 7 7 7 7 7 12 13 13 13 12 11 10 9 9 9 9 9 7 6 7 7 7 7 8 7 6 6 6 6 6 6 6 6 5
8 10 8 7 7 8 10 11 12 12 12 12 11 10 9 9 9 9 10 10 10 9 7 7 6 6 7 7 7 7 6 7 5 5 5 5 4 4
8 9 11 11 13 13 13 13 12 11 11 11 11 10 10 10 10 9 10 10 10 9 8 7 6 6 6 6 7 6 6 6 5 6 6 6 5 4
10 14 14 14 14 14 13 12 11 11 11 11 10 10 10 10 10 10 10 11 10 9 8 7 7 7 7 7 5 7 7 7 6 6 6 7 7 5
14 14 14 14 14 13 12 12 11 10 10 10 10 9 9 9 9 10 10 10 9 8 8 7 8 8 10 10 8 4 7 6 6 7 6 6 6 5
13 14 14 13 12 12 11 10 10 9 9 9 9 9 9 9 10 10 10 10 10 10 9 8 8 8 9 10 9 7 4 5 6 6 5 5 5 3
13 12 11 11 10 10 9 9 9 9 8 9 8 8 9 9 10 10 10 8 8 9 9 9 7 5 6 6 8 8 6 4 5 6 5 6 6 5
11 10 10 9 9 9 9 9 9 9 9 9 9 8 8 9 10 10 10 9 9 9 9 8 7 7 7 9 9 8 7 6 4 4 4 4 6 7
9 9 9 8 8 9 9 9 9 9 9 8 8 8 8 9 9 10 9 9 9 8 8 9 8 7 7 8 8 8 8 7 6 6 5 3 3 3

GFSNE_con_lsi_111.txt.gz
Lid_Strength_Index
8 7 7 7 7 7 7 7 8 11 10 8 8 6 6 5 5 5 4 4 2 2 1 1 1 1 1 1 1 1 1 2 2 2 2 2 2 2
8 8 8 7 7 7 7 7 8 8 10 7 7 6 6 5 4 4 4 3 3 3 2 2 2 1 1 0 0 0 1 1 1 1 2 2 2 2
8 8 8 8 8 8 8 7 7 7 9 7 7 6 6 6 5 4 4 4 4 3 2 2 2 2 1 1 1 1 1 0 0 0 0 1 1 2
8 8 8 8 8 8 8 7 6 6 7 8 7 7 6 6 5 5 6 5 4 3 3 2 2 2 2 2 2 1 1 1 1 0 -0 -0 0 0
8 8 8 8 8 7 7 6 6 6 7 8 7 6 7 6 6 6 5 5 5 4 3 3 2 2 1 1 1 1 1 1 1 1 1 0 -0 -1
8 8 7 7 7 6 6 6 6 7 7 7 7 7 7 6 6 7 7 5 5 5 4 3 3 2 1 1 1 1 1 1 1 1 1 1 0 0
7 7 6 6 6 5 6 6 7 8 7 7 8 8 8 8 8 7 8 7 6 5 5 4 4 3 3 2 2 2 2 2 1 1 1 1 1 1
6 5 6 5 5 4 4 4 4 6 7 7 7 8 8 7 7 7 8 8 9 5 6 5 4 4 3 3 3 2 2 2 1 1 1 1 1 1
7 7 7 7 6 6 6 5 5 5 5 6 7 7 7 7 6 7 7 8 8 7 6 6 5 5 3 3 3 2 2 1 1 1 1 1 1 1
7 7 7 7 7 7 7 7 7 6 6 7 7 7 6 6 6 6 6 7 7 7 6 8 5 5 3 3 3 2 2 2 1 1 1 1 1 1
7 7 7 7 6 6 7 8 7 7 5 5 4 4 4 4 4 6 8 8 9 8 5 6 6 6 5 4 3 2 1 1 1 1 1 1 1 1
7 7 6 6 6 6 7 8 8 8 7 7 6 6 5 5 5 5 6 8 8 9 6 6 6 6 6 3 2 2 2 1 1 1 1 2 2 2
8 8 7 7 6 6 6 7 7 6 6 7 7 7 7 6 6 6 6 7 8 8 6 6 7 6 6 6 4 4 3 2 2 1 2 2 2 2
9 8 8 7 6 6 6 6 6 6 9 9 9 9 9 9 8 7 7 7 6 7 6 5 7 6 6 7 7 5 4 2 2 2 2 3 3 3
8 7 7 7 7 7 7 7 7 9 9 10 11 10 10 9 9 8 8 7 7 6 6 6 6 5 5 7 8 7 6 4 2 3 3 4 3 3
8 8 8 7 8 8 9 10 10 10 10 11 10 10 9 9 10 9 9 8 9 8 7 6 5 5 6 6 6 7 6 6 4 3 3 4 3 4
8 10 10 11 11 11 11 11 10 10 10 10 10 10 10 9 9 9 9 9 10 10 9 7 5 4 5 6 7 6 6 6 5 5 5 5 4 4
10 11 12 12 12 12 11 11 10 10 10 9 9 9 9 9 9 8 8 9 10 10 9 7 6 7 7 6 5 7 6 6 5 5 4 6 6 4
11 12 12 11 11 10 10 10 10 9 8 8 8 8 8 8 8 8 8 9 9 9 9 7 7 8 9 10 6 4 6 6 5 5 5 5 6 4
11 11 11 10 10 9 9 9 8 8 8 8 8 8 8 8 8 8 8 9 9 9 9 7 7 7 8 9 8 6 5 5 5 5 5 4 3 3
9 9 9 8 8 8 8 8 8 8 8 8 8 8 8 8 8 8 8 8 8 9 9 8 7 5 5 6 8 8 6 5 5 5 5 5 6 5
9 8 8 8 8 8 8 8 9 9 8 8 8 7 8 7 8 8 8 9 9 8 8 7 6 6 7 8 8 8 7 5 4 4 4 4 6 7
8 8 8 8 8 8 8 8 9 9 8 8 8 8 8 8 8 8 8 9 8 8 8 8 7 7 7 7 7 7 7 7 6 6 5 4 3 3

GFSNE_con_lsi_114.txt.gz
Lid_Strength_Index
4 4 4 5 5 5 5 6 7 9 8 7 7 6 5 5 5 5 4 4 4 3 3 2 2 1 1 1 1 -0 -0 -0 0 0 1 1 1 1
6 5 6 6 5 5 5 6 6 7 9 7 7 6 5 4 4 4 4 3 3 3 3 3 2 2 2 1 1 1 0 -0 -1 -0 1 1 1 1
6 6 6 6 6 6 6 6 6 7 8 7 6 5 4 4 4 3 4 4 4 3 3 3 3 2 2 2 1 1 1 1 0 -0 -1 -0 0 1
6 6 7 7 6 6 6 6 6 6 7 8 6 5 4 4 4 5 5 4 4 4 3 3 3 3 2 2 1 1 1 1 1 0 -0 -1 -1 -1
7 7 7 6 6 6 6 6 6 6 5 6 6 4 4 4 5 5 5 4 4 4 4 4 3 3 3 2 2 1 1 1 1 1 1 0 -0 -1
6 6 6 6 6 5 5 5 5 5 5 6 7 7 5 5 5 6 7 5 6 5 4 4 4 3 3 2 2 2 1 1 1 0 0 0 0 0
6 5 5 4 3 3 4 4 5 5 6 7 7 7 6 6 7 6 6 6 6 6 6 5 5 4 3 3 3 3 2 2 1 1 0 0 0 0
6 5 4 3 3 3 3 3 3 6 6 6 6 7 6 7 6 7 7 8 9 5 6 6 5 5 4 4 3 3 3 2 2 2 1 1 0 0
5 4 4 4 4 4 4 4 4 4 4 5 7 7 7 6 6 7 7 7 8 6 7 8 6 6 4 4 3 3 3 2 2 2 1 1 1 1
5 4 5 5 5 5 6 6 6 5 6 6 6 6 6 6 6 6 6 6 5 5 6 8 6 6 5 4 3 3 3 2 2 2 1 1 1 0
5 5 5 6 5 5 6 6 6 6 5 4 4 4 4 4 4 5 7 8 9 8 6 7 6 7 5 5 3 2 3 3 2 1 1 0 0 0
6 6 6 6 5 5 6 7 7 7 6 6 6 5 5 5 4 5 5 8 8 8 6 7 7 7 8 5 4 4 4 2 1 1 1 0 -0 0
8 8 7 6 6 6 6 6 6 5 6 6 7 6 7 6 6 5 5 6 7 8 6 7 7 7 7 7 6 5 4 3 2 1 1 1 1 1
9 8 8 7 6 6 6 6 6 6 7 8 8 8 8 8 7 7 7 7 6 7 6 6 8 7 7 8 7 5 4 4 3 3 2 2 1 1
8 7 7 6 6 6 6 6 7 8 9 9 9 9 8 8 8 8 8 8 8 7 7 7 7 7 7 7 7 6 6 5 4 4 3 3 2 1
7 8 8 8 8 8 8 8 9 9 9 10 9 9 8 8 9 8 9 9 9 8 7 6 7 6 7 6 6 6 6 7 5 4 4 3 2 1
8 8 9 9 9 9 9 9 8 8 8 8 8 8 9 8 8 8 8 8 9 9 9 7 6 6 6 6 6 6 6 6 5 5 5 5 4 3
9 10 9 9 9 9 9 9 8 7 7 7 7 7 7 7 7 7 7 7 8 8 8 8 8 8 7 5 5 7 6 6 6 5 5 6 6 4
10 10 10 9 9 9 9 8 9 8 8 8 8 8 8 7 7 7 7 7 7 7 8 8 8 8 8 9 6 4 7 6 6 6 5 5 6 5
9 9 8 7 7 8 8 8 7 7 7 7 7 7 7 7 8 8 7 7 7 7 8 8 8 7 8 8 8 6 5 6 6 6 5 4 4 2
8 8 7 7 7 8 8 8 8 8 8 7 7 7 7 7 7 7 7 7 7 8 9 9 7 5 5 5 7 8 6 5 5 6 6 6 6 5
8 8 7 7 7 8 7 7 8 8 8 8 8 7 7 7 7 7 7 8 8 8 9 7 6 6 6 7 8 8 7 5 4 4 4 4 6 7
8 8 8 8 7 7 8 7 7 7 8 8 8 8 7 8 7 8 8 8 8 8 8 8 7 6 7 7 7 7 8 7 6 6 5 3 3 3

GFSNE_con_lsi_117.txt.gz
Lid_Strength_Index
5 4 5 5 5 5 5 5 7 9 8 6 6 5 5 5 4 6 6 4 4 4 4 3 2 2 1 1 1 1 1 0 -0 -0 -0 0 0 0
6 6 6 6 6 6 6 6 6 7 9 7 7 6 5 6 5 5 5 3 4 3 3 3 2 2 2 2 2 1 1 1 0 -0 -0 -0 -0 -0
7 7 6 6 6 5 5 6 6 7 8 7 6 6 6 6 5 4 4 5 4 3 3 3 3 2 2 2 2 2 1 1 1 0 -0 -0 -0 -0
7 7 7 7 6 6 6 6 6 6 7 8 6 6 6 4 4 4 4 5 4 3 3 3 3 3 3 2 2 2 2 2 1 1 0 -0 -0 -0
7 7 7 7 7 6 6 6 6 6 6 6 6 5 4 4 4 4 5 4 4 3 3 3 3 3 3 3 3 2 2 2 2 1 1 0 -0 -0
7 7 7 7 7 6 6 5 5 5 5 5 5 5 5 4 5 5 6 5 6 5 4 4 3 3 3 3 3 3 2 2 2 2 1 1 0 -0
7 7 6 5 4 4 4 4 4 4 4 5 6 6 6 5 6 6 7 6 5 5 6 6 6 5 4 3 3 3 3 3 3 2 2 1 1 0
7 7 6 5 4 3 2 2 2 4 4 5 5 6 5 5 5 6 7 8 8 5 6 6 5 5 5 5 3 4 4 4 3 3 2 2 2 1
8 7 6 5 4 5 4 3 3 3 3 4 6 6 7 6 6 7 7 7 7 6 6 8 6 6 5 5 4 3 3 3 3 3 2 2 2 1
7 6 6 6 6 6 6 6 6 6 5 5 6 6 6 5 6 6 6 6 5 5 5 9 6 6 5 5 4 3 3 3 3 3 2 2 2 1
7 6 6 7 6 5 7 7 6 6 4 4 4 4 3 3 4 5 7 7 8 8 6 7 7 6 6 6 5 3 3 2 3 3 3 2 2 1
7 7 7 7 6 6 7 8 8 7 7 6 6 5 5 5 4 5 6 7 8 9 6 7 6 6 9 6 6 5 5 4 3 3 2 2 1 2
8 8 8 7 6 6 6 7 7 6 6 7 7 7 6 6 6 6 6 6 7 8 5 6 7 7 8 8 7 6 6 6 5 4 2 1 1 1
8 8 8 7 6 5 5 5 5 6 7 8 8 8 8 8 7 7 7 6 6 7 6 6 8 8 9 9 9 7 6 6 6 6 3 2 1 1
7 7 6 6 6 6 6 6 6 8 8 9 9 9 8 8 7 7 7 7 7 7 7 7 8 8 8 9 9 8 8 7 6 5 4 4 4 3
7 7 7 7 6 6 6 6 7 7 7 7 7 6 6 6 7 7 8 8 8 8 6 6 7 7 8 8 8 8 7 8 6 5 5 4 4 3
8 8 8 8 8 8 7 7 7 7 7 7 7 7 7 7 7 6 6 6 8 8 8 7 6 6 7 8 9 7 7 6 6 6 6 6 5 4
9 9 9 9 9 9 9 8 8 8 8 8 8 8 8 8 7 7 7 7 7 7 7 6 7 7 7 7 6 8 7 7 6 6 6 6 6 5
10 10 10 9 8 8 8 8 8 7 7 7 8 8 8 8 7 7 7 7 7 7 7 6 7 8 10 11 7 4 6 6 6 7 6 6 6 5
9 8 8 8 8 8 8 8 8 7 7 8 8 8 7 7 8 7 7 8 7 7 7 6 7 8 9 9 9 6 4 6 6 7 6 5 4 3
8 8 8 8 8 8 8 8 8 9 8 7 8 8 8 8 8 7 7 7 7 7 8 8 7 6 7 6 8 7 6 5 5 6 6 6 6 6
8 8 8 8 8 8 8 8 8 9 8 8 7 8 8 8 8 8 8 8 8 8 8 7 7 7 7 7 8 7 7 6 4 4 4 5 6 8
8 8 8 8 8 8 8 8 8 8 8 8 8 7 7 8 8 7 8 8 8 8 8 8 8 7 7 7 8 8 8 8 7 7 6 3 3 3

GFSNE_con_lsi_120.txt.gz
Lid_Strength_Index
7 7 7 7 7 8 8 10 11 13 13 10 9 8 8 9 7 9 9 6 5 4 4 4 4 3 3 2 2 2 2 1 1 0 -0 -0 -0 -0
8 8 8 8 8 8 8 9 9 11 13 10 8 8 8 8 7 8 8 4 4 4 4 3 3 3 3 2 2 2 1 1 1 1 0 -0 -1 -0
9 8 8 8 8 8 8 9 9 9 10 9 9 8 8 8 8 8 7 8 8 3 3 3 2 3 3 2 2 2 2 1 1 1 1 0 0 -0
8 9 9 8 9 9 9 9 9 9 10 11 10 10 9 8 8 8 6 5 6 3 2 2 2 2 2 2 2 2 2 2 2 1 1 1 0 0
10 9 9 9 10 9 9 10 10 8 10 10 10 9 8 8 7 7 6 6 4 3 3 2 2 2 2 2 2 2 3 2 2 2 2 1 1 1
9 9 10 10 11 11 9 10 9 9 9 8 9 9 7 7 6 6 8 6 6 5 3 2 3 3 2 2 2 3 2 2 2 2 2 2 2 1
9 9 9 7 6 7 8 8 8 8 8 8 8 8 7 6 7 6 6 7 7 6 6 6 6 5 5 3 3 2 2 3 3 3 3 2 2 2
10 10 10 8 8 6 5 4 5 8 9 8 9 9 9 8 7 6 7 9 10 7 7 6 5 6 5 5 4 3 3 3 3 3 3 3 3 2
11 11 10 9 8 9 6 5 6 5 5 7 8 9 10 9 9 9 9 9 9 7 6 8 7 8 7 5 3 3 3 3 3 3 3 3 3 2
12 12 12 11 9 8 8 8 8 8 8 8 8 8 8 7 7 7 8 8 7 7 5 8 7 7 7 6 4 3 3 3 3 3 3 3 3 2
11 11 11 11 7 5 7 8 8 8 6 5 4 4 4 4 4 6 7 8 8 7 6 7 7 7 7 7 6 3 3 3 2 3 4 4 3 3
12 11 8 8 6 6 8 8 10 10 9 8 7 6 6 6 4 6 8 9 9 9 8 8 8 9 9 8 8 8 7 5 4 5 4 4 3 5
12 12 10 7 6 5 5 6 7 6 5 6 7 8 8 7 7 7 7 7 9 9 6 6 8 8 8 10 9 9 9 9 8 7 6 4 3 3
11 10 10 6 5 5 5 5 4 5 7 8 8 8 7 7 6 7 7 7 8 8 7 8 8 8 8 9 11 9 9 9 9 9 7 5 4 3
10 7 6 6 6 6 5 5 5 7 7 8 9 8 7 7 7 6 6 6 7 7 6 7 8 9 9 10 10 10 9 9 9 9 8 6 6 5
8 9 8 7 6 7 7 7 7 7 7 8 8 7 7 7 8 8 8 8 8 7 6 6 7 7 8 9 9 9 8 9 9 9 9 8 7 6
9 9 10 10 10 10 9 9 8 8 9 9 9 9 9 8 8 7 7 7 8 9 9 7 5 6 6 7 9 8 8 8 8 8 8 8 7 5
10 11 11 10 10 10 9 9 9 8 8 8 8 9 9 9 9 8 8 8 8 8 8 8 7 7 7 7 6 8 8 8 8 8 7 7 7 5
11 11 10 9 9 9 9 8 9 8 8 9 9 9 8 8 8 9 9 8 8 8 8 7 7 7 10 11 7 4 8 8 8 7 7 7 7 6
10 10 10 9 8 8 8 8 8 8 8 8 8 9 8 9 9 9 9 9 8 8 8 7 7 7 9 10 9 7 5 7 7 7 7 6 5 4
10 10 9 8 8 8 8 8 8 8 8 8 8 9 9 9 9 9 9 8 8 8 8 8 7 5 6 6 8 8 7 5 6 6 6 7 7 6
9 10 8 8 8 8 8 8 8 8 8 8 8 8 8 8 8 9 9 9 9 9 9 8 7 7 8 8 9 9 7 6 5 4 4 5 7 8
9 9 9 8 8 7 8 8 8 8 8 8 8 8 8 9 8 8 8 8 8 9 8 9 8 8 8 9 8 9 8 7 7 8 7 4 3 3

GFSNE_con_lsi_123.txt.gz
Lid_Strength_Index
8 8 8 8 9 10 10 10 11 12 11 10 9 9 9 9 7 7 9 7 5 5 5 5 4 4 4 3 3 3 2 2 2 2 1 1 1 0
9 8 9 10 9 9 9 9 9 10 11 9 8 8 8 8 7 9 9 6 6 5 4 4 4 3 3 3 3 3 2 2 2 1 1 1 0 -0
9 8 8 8 8 8 8 9 10 10 11 10 10 10 10 10 10 9 8 9 9 4 4 3 3 2 1 2 2 2 2 2 2 1 1 0 0 -0
8 8 9 8 9 9 10 11 11 11 12 13 12 12 11 10 10 10 8 6 7 4 2 2 2 2 2 1 1 1 1 1 1 1 1 1 1 0
9 9 10 10 11 11 11 12 12 10 12 13 12 11 11 10 10 9 8 7 5 3 2 2 2 1 1 1 1 1 0 1 2 1 1 1 1 0
10 10 10 11 11 12 10 11 10 11 11 12 12 11 10 9 9 9 8 8 8 5 4 2 1 1 1 1 0 1 1 1 2 2 2 2 2 1
10 10 9 7 6 7 9 10 10 11 11 11 11 10 10 10 10 9 9 9 9 8 8 7 5 4 4 2 2 2 1 2 2 2 2 3 2 2
11 11 10 9 8 7 7 7 8 10 9 8 8 9 10 10 10 9 9 10 11 8 9 8 7 7 6 6 3 2 2 2 2 3 3 3 3 3
13 12 11 10 10 11 9 7 7 5 5 8 10 11 11 10 10 11 11 11 10 9 8 8 7 8 7 5 3 3 3 3 3 3 3 3 3 3
12 12 12 12 11 10 10 10 9 8 8 7 9 9 9 9 8 7 7 8 8 7 6 8 6 7 7 6 4 3 3 2 3 3 3 3 3 3
12 12 12 13 9 8 10 9 9 9 6 4 4 4 3 3 4 7 8 8 8 8 8 7 8 7 6 7 6 4 3 3 3 3 3 3 4 4
13 12 9 10 8 7 8 8 8 8 8 6 5 5 4 5 3 5 6 7 8 10 9 8 7 7 8 8 8 8 8 4 4 4 4 4 4 7
13 13 12 8 7 6 6 8 8 6 7 7 7 8 7 7 6 5 5 6 7 7 6 6 8 8 9 9 7 8 8 9 9 8 5 5 4 5
12 12 10 8 7 7 7 5 5 6 8 9 10 9 8 7 8 7 7 6 5 6 5 6 8 8 9 10 10 9 9 9 9 9 9 7 5 5
11 9 9 8 8 8 7 6 7 9 9 9 10 9 8 7 7 7 7 7 7 6 5 5 6 6 8 9 10 10 10 9 9 9 9 9 9 9
10 12 10 9 9 9 9 8 8 8 8 10 10 10 10 9 9 9 10 9 9 8 7 6 7 7 7 7 8 9 8 9 9 9 9 9 9 9
10 11 12 12 11 10 9 8 8 8 8 8 9 10 10 10 10 9 9 10 9 9 8 7 7 6 6 7 7 8 8 8 8 8 8 9 9 9
11 13 13 12 11 10 9 9 8 7 8 8 9 9 9 9 9 8 9 10 9 10 10 8 8 9 7 7 5 7 8 8 7 7 8 9 10 8
12 12 12 12 11 9 8 8 8 8 7 8 8 8 9 9 9 9 9 9 9 10 9 9 9 8 9 11 8 4 7 7 7 8 8 9 9 8
12 12 12 10 9 9 8 8 8 8 8 8 8 8 9 9 9 9 9 9 10 9 9 9 9 8 8 9 9 7 5 7 7 8 8 7 6 5
12 11 10 9 9 8 8 8 8 8 7 8 8 8 8 9 9 9 9 8 8 9 10 10 9 5 6 6 8 8 7 5 6 8 8 7 7 7
11 11 10 9 9 8 8 7 8 8 8 8 7 8 8 8 9 8 8 9 8 9 9 8 8 8 8 9 10 9 8 7 5 4 4 5 7 9
11 11 10 9 8 8 8 8 8 8 8 7 8 7 8 8 8 8 8 8 8 8 8 8 8 7 8 9 9 9 9 8 7 7 7 4 3 3

GFSNE_con_lsi_126.txt.gz
Lid_Strength_Index
8 8 8 9 10 10 9 9 10 13 13 11 10 9 9 9 8 7 9 7 6 6 5 5 4 4 4 4 3 3 4 4 3 2 2 1 1 1
9 9 9 10 10 10 10 10 9 9 11 10 9 9 10 9 7 10 10 7 6 6 5 5 4 4 4 3 3 2 3 3 2 1 1 1 1 1
10 9 10 9 9 8 8 9 10 10 11 10 11 11 12 12 11 11 10 11 10 6 5 5 4 3 2 3 2 2 2 1 1 0 -0 -0 -0 -0
9 10 10 8 9 10 10 10 11 12 12 13 13 12 12 12 12 12 10 8 10 6 3 3 3 3 3 2 2 2 2 1 1 -0 -1 -1 -1 -1
9 10 11 11 12 12 11 11 11 10 12 13 13 13 12 12 12 11 10 9 7 4 3 3 3 3 2 2 2 2 1 1 -0 -0 -0 -1 -1 -1
10 11 11 11 12 12 11 11 11 11 12 13 13 12 12 11 11 11 10 9 9 6 5 4 3 3 3 2 2 1 0 1 -0 -1 -0 -0 0 0
11 11 9 8 6 8 10 11 11 12 12 13 13 13 12 12 11 10 10 9 9 9 9 8 8 8 7 4 3 2 1 1 1 1 1 1 1 1
12 12 11 9 9 8 7 7 9 12 13 12 12 13 12 11 10 10 10 11 12 10 10 10 9 9 8 7 4 3 2 2 2 1 2 2 2 2
13 13 12 10 10 11 9 8 8 7 8 11 12 12 12 11 10 10 10 9 9 7 8 9 9 8 7 6 3 3 2 2 2 2 2 2 2 3
13 13 13 13 12 10 11 11 11 11 10 9 10 9 9 8 7 6 6 7 6 6 4 8 7 8 7 7 4 3 3 3 2 2 3 2 2 3
13 13 13 13 9 8 11 10 9 9 7 5 4 4 3 3 4 7 8 9 9 8 5 5 6 9 8 8 7 4 4 3 3 3 3 3 3 3
13 13 9 10 8 7 8 9 10 11 8 7 6 6 6 7 4 7 7 8 8 7 6 7 8 6 8 7 9 9 8 5 4 4 4 4 3 7
13 13 12 8 7 8 8 10 8 9 9 10 10 10 9 9 8 8 8 8 8 8 6 6 6 6 6 7 8 7 7 8 8 8 6 5 4 5
13 12 10 8 8 8 9 8 8 9 11 11 11 10 10 10 9 8 8 8 7 7 6 6 6 7 7 8 9 8 8 8 8 9 9 7 5 5
11 10 10 9 10 10 9 9 9 11 11 11 12 12 11 10 10 9 9 9 8 8 6 7 6 6 7 8 8 8 8 8 9 10 10 9 10 9
11 12 11 11 10 10 11 10 9 10 8 9 9 9 9 9 9 10 11 10 10 8 7 7 7 7 7 7 7 7 7 8 7 8 9 10 10 10
11 13 13 13 13 12 11 10 9 8 8 8 8 9 9 9 9 9 9 10 10 10 10 8 7 7 7 8 7 7 7 7 7 7 8 9 9 9
12 13 13 13 12 12 12 10 9 7 7 7 8 8 8 9 10 10 9 9 10 10 10 10 10 10 8 7 5 7 7 7 7 7 7 8 8 8
13 13 13 13 12 11 11 10 9 8 7 7 8 8 8 8 8 9 9 9 10 9 9 9 9 10 10 11 8 4 8 8 6 6 7 7 9 8
13 13 12 12 11 11 10 9 9 8 8 7 7 8 8 8 9 9 9 9 9 9 9 8 9 9 10 10 9 7 4 7 8 8 7 7 7 6
13 12 12 11 11 10 9 8 8 8 7 8 8 8 8 8 9 9 9 8 7 8 9 9 8 6 6 6 8 8 7 4 5 6 7 8 9 8
12 12 11 10 10 10 9 8 8 7 7 7 8 8 8 8 9 9 9 9 9 8 8 7 7 7 7 8 9 9 8 7 5 4 4 6 8 10
12 12 11 11 10 10 9 8 9 8 8 8 8 7 8 8 8 9 9 8 9 8 8 8 7 7 7 8 8 9 9 9 8 8 8 5 4 4

GFSNE_con_lsi_129.txt.gz
Lid_Strength_Index
8 8 8 9 9 9 9 10 12 14 13 12 12 11 10 9 7 7 8 7 5 6 6 5 5 5 4 4 4 4 4 3 3 4 4 3 2 2
8 8 9 10 11 11 11 12 11 10 10 10 10 9 10 9 7 10 10 6 6 6 6 6 6 5 5 4 4 4 3 3 2 2 2 1 1 1
10 9 10 10 11 11 10 10 9 9 11 12 12 12 12 12 11 11 10 11 11 6 5 5 5 5 4 4 3 3 2 2 2 2 1 1 1 -0
10 10 10 9 11 10 10 10 11 12 12 13 13 12 12 12 12 12 10 9 10 7 5 5 4 4 4 3 3 3 3 2 2 2 1 1 1 0
9 9 10 10 11 11 11 12 12 11 13 13 13 13 12 12 12 12 11 11 9 6 5 5 4 4 3 3 3 3 3 3 2 2 1 0 -0 -0
11 11 11 11 12 12 11 12 11 12 13 13 13 13 13 12 12 12 12 12 11 8 6 5 4 3 3 3 3 3 3 3 3 2 1 -0 -1 -1
11 10 10 9 7 9 10 11 12 13 13 13 14 14 13 13 13 13 13 12 10 10 10 9 8 8 7 4 4 4 3 3 2 2 1 1 0 -0
12 12 11 10 8 7 7 7 10 12 13 13 14 14 14 13 13 13 13 12 11 9 10 8 8 8 7 6 4 3 3 3 2 2 2 1 1 1
13 13 12 10 10 11 8 8 9 8 8 12 13 14 14 13 13 12 9 8 8 7 9 8 7 6 5 4 2 3 3 3 2 2 2 2 2 1
14 13 13 13 12 11 12 12 12 12 11 10 11 10 10 9 9 7 6 7 8 8 8 8 7 6 6 5 3 2 3 3 3 2 2 2 2 2
13 13 13 13 10 8 11 12 10 10 8 7 7 7 7 6 6 8 9 9 9 8 8 7 6 6 7 6 6 3 3 4 3 2 3 3 2 2
13 13 9 10 8 7 8 9 11 11 10 11 11 11 9 9 6 9 9 9 9 9 6 8 7 6 7 5 7 5 5 4 5 5 4 4 4 5
13 13 12 8 7 8 8 10 9 10 12 13 13 12 11 10 10 9 9 10 9 9 7 6 8 8 8 8 6 6 6 6 7 7 6 5 5 6
12 12 10 8 8 8 9 9 9 11 13 13 13 12 12 10 10 10 10 9 9 9 8 9 8 8 8 8 9 7 7 6 7 8 9 7 6 5
10 9 9 9 10 11 10 10 10 13 11 11 11 10 9 8 8 9 10 10 10 9 7 9 9 9 8 8 8 8 7 7 6 8 8 10 10 10
10 11 11 10 11 11 12 11 11 11 10 10 10 9 8 8 9 9 9 9 10 9 9 9 9 9 10 8 8 8 7 8 6 7 8 9 9 8
11 12 13 14 13 12 12 11 10 10 9 9 8 8 8 8 8 9 9 9 10 10 10 8 9 9 9 9 9 8 7 7 7 7 7 8 8 9
11 13 14 13 13 13 12 12 11 10 9 8 8 7 8 8 8 8 8 9 10 10 11 9 9 9 9 9 7 9 7 7 7 8 7 8 8 7
13 13 13 13 13 12 12 12 11 10 9 8 8 7 8 8 7 8 8 9 9 9 9 9 10 9 11 12 10 5 9 8 8 8 7 7 7 7
13 13 13 12 12 12 12 11 11 10 9 9 8 8 8 8 9 8 9 9 9 9 9 8 8 9 10 10 10 8 5 7 8 8 9 6 6 5
13 13 12 11 11 11 11 10 10 9 8 8 8 8 9 8 9 8 8 8 8 9 10 9 8 5 6 6 9 9 8 5 5 8 7 7 7 8
12 12 12 11 11 11 10 10 10 9 8 9 8 8 8 8 8 8 9 9 9 9 9 8 7 7 7 8 9 9 9 7 6 4 4 5 7 10
13 12 12 12 12 11 11 11 10 9 9 9 9 9 8 8 7 8 8 9 9 9 9 9 8 7 8 8 7 8 8 8 8 9 8 5 5 4

GFSNE_con_lsi_132.txt.gz
Lid_Strength_Index
8 8 8 8 8 8 8 9 10 12 12 13 13 11 10 9 6 7 7 6 5 5 5 5 5 5 5 5 4 4 4 4 4 4 3 3 3 3
8 8 8 9 10 10 10 11 11 11 12 11 9 9 10 9 7 10 10 5 5 4 5 5 5 4 4 4 5 4 5 4 4 4 4 3 2 1
9 8 10 10 11 11 11 11 11 11 11 11 11 12 12 11 11 11 10 10 10 6 5 5 5 5 4 4 5 5 5 5 4 3 3 2 1 0
10 10 10 10 11 11 11 11 11 11 11 13 13 12 12 12 12 11 10 9 10 7 5 5 5 5 5 5 4 4 4 4 4 2 2 1 1 0
10 10 10 10 11 10 10 11 12 11 13 13 13 13 12 12 11 11 11 11 9 7 6 5 6 5 5 5 4 4 3 3 2 2 2 1 1 1
10 10 10 11 11 11 11 12 11 12 13 13 13 13 13 12 12 12 12 12 11 9 8 7 5 5 5 4 4 3 3 2 1 1 2 2 2 1
11 10 11 9 7 8 10 11 12 13 13 13 14 13 13 13 13 13 13 12 12 11 11 10 9 9 8 5 4 3 2 1 1 1 1 2 2 1
12 11 11 9 7 6 6 7 10 12 13 13 13 14 14 14 14 14 13 13 11 10 11 8 8 7 7 7 3 2 2 1 1 1 1 2 2 1
13 13 12 10 10 11 8 7 9 8 9 12 14 14 14 13 13 12 10 9 9 8 9 8 8 8 6 5 3 2 2 1 1 1 1 2 1 1
13 13 13 13 13 11 12 12 12 12 11 10 12 12 12 9 9 9 9 9 8 9 9 10 7 8 5 6 3 3 2 2 2 1 1 2 2 2
13 13 13 13 10 7 11 12 12 11 9 8 8 8 8 8 8 11 12 12 11 10 9 8 7 8 7 7 6 3 3 3 2 2 1 3 3 2
13 13 9 10 7 7 8 9 11 12 11 12 13 13 12 11 9 12 12 12 12 12 8 10 10 9 10 7 7 6 6 4 3 3 2 3 4 5
13 13 13 8 7 7 8 10 10 11 12 14 14 14 14 13 12 12 11 11 10 10 9 8 8 9 9 9 7 7 7 7 6 5 4 4 5 5
12 12 11 8 8 8 9 9 9 11 14 14 12 12 12 11 11 11 11 10 10 10 9 10 9 9 9 9 9 7 7 7 7 6 6 5 5 5
10 9 9 9 9 10 9 10 10 13 12 12 12 12 11 10 10 11 10 10 10 10 8 9 9 9 9 9 9 9 8 7 6 5 6 6 7 8
10 11 10 10 10 11 12 11 11 11 11 11 11 10 10 9 9 9 10 9 9 10 9 9 9 9 9 9 9 9 8 9 7 6 6 6 6 7
10 12 13 13 13 12 12 11 11 10 10 10 10 9 9 8 8 7 8 8 9 10 9 10 9 10 10 10 9 9 9 8 7 7 6 7 6 6
11 13 13 13 13 13 13 12 11 11 11 10 9 9 9 8 8 7 7 8 9 9 10 9 9 9 9 9 7 10 10 9 7 7 7 8 7 6
12 13 13 13 13 12 12 12 12 11 10 10 10 10 8 8 8 8 8 8 9 9 9 9 9 10 11 12 10 6 9 9 8 8 7 7 8 7
12 13 13 12 12 12 11 11 11 11 11 11 10 9 8 8 9 9 9 9 9 8 9 9 9 9 10 10 9 7 5 7 7 8 7 7 6 4
12 12 12 12 11 11 11 12 11 10 10 9 8 9 8 9 9 9 9 7 8 9 10 9 8 6 6 6 9 9 8 5 6 7 8 8 8 7
12 11 12 12 12 11 11 11 10 10 9 10 9 9 9 9 9 8 8 10 9 9 9 8 7 7 8 8 9 8 7 7 6 5 5 5 7 9
12 12 12 12 12 12 12 11 11 11 10 9 9 9 9 9 8 8 9 9 9 9 9 9 8 8 8 8 8 8 8 7 7 7 7 6 5 4

GFSNE_con_lsi_138.txt.gz
Lid_Strength_Index
4 5 5 6 5 5 5 5 6 8 8 12 11 10 9 8 8 8 7 6 5 4 4 4 4 4 3 3 3 3 3 3 3 3 3 3 3 3
6 6 7 7 7 7 6 7 7 7 9 11 11 10 9 9 8 7 6 6 6 5 5 4 4 4 4 4 4 4 4 3 3 3 3 3 3 3
7 7 8 8 9 8 8 9 9 8 10 12 10 8 7 6 6 5 5 5 5 6 5 5 5 5 5 4 5 4 4 4 4 3 3 3 3 3
8 8 9 9 10 10 10 11 11 10 9 10 9 8 7 7 6 6 6 6 6 6 6 6 6 6 5 5 5 5 4 4 4 4 3 3 3 3
8 9 10 10 11 11 10 10 9 9 8 8 9 7 7 7 8 8 8 7 7 7 6 6 6 6 6 6 5 5 5 4 4 4 4 3 3 2
10 10 10 10 11 10 9 9 8 9 9 9 8 8 8 7 8 8 8 7 7 6 6 7 6 6 6 6 5 5 5 4 4 3 3 2 2 1
10 9 9 8 7 7 8 8 7 8 7 8 8 8 8 8 9 8 8 7 7 6 6 6 6 6 6 5 5 5 5 4 3 3 2 2 2 1
7 6 5 5 5 5 6 6 6 7 7 8 8 8 8 8 7 8 8 8 9 5 7 8 6 7 6 6 5 5 4 3 3 3 3 2 2 2
6 6 7 7 6 5 5 6 6 7 7 7 8 8 8 8 8 9 8 8 9 8 8 8 7 7 6 6 5 5 4 3 4 4 3 2 2 1
7 7 7 7 7 7 7 7 7 7 7 7 7 8 8 7 8 8 8 8 8 7 7 9 7 7 6 5 5 4 4 4 4 4 4 4 3 2
8 8 8 8 8 7 7 8 8 7 6 7 7 8 8 8 8 8 9 9 9 9 7 9 8 7 7 6 4 4 4 4 4 4 4 4 3 3
9 8 8 7 7 7 7 8 8 8 8 8 8 8 8 8 9 8 9 10 10 10 8 9 9 8 9 5 5 5 5 5 5 4 4 4 4 3
8 8 7 7 7 7 8 7 8 8 9 8 8 8 8 8 8 8 8 8 10 11 8 8 8 8 8 8 6 5 6 5 5 5 4 4 4 4
9 8 8 8 7 8 8 7 8 9 9 9 10 10 10 9 9 8 8 8 7 8 7 7 8 8 9 9 9 6 6 6 6 5 6 5 4 4
9 9 9 9 9 9 9 8 9 9 10 11 11 11 10 9 9 8 8 8 7 7 7 6 6 7 7 9 9 9 8 7 6 6 5 5 5 5
10 10 10 10 9 9 9 8 9 10 10 10 10 9 9 9 9 9 9 8 8 8 6 6 6 6 8 7 7 8 8 8 7 6 6 5 5 5
10 10 11 11 11 10 10 10 9 9 10 10 10 10 10 9 10 9 8 8 9 8 8 7 6 6 6 6 8 8 7 7 6 6 6 6 6 4
10 11 11 11 12 11 11 10 10 10 10 10 10 10 10 10 10 9 9 9 9 8 8 7 6 7 6 6 5 7 7 7 6 6 6 6 7 4
11 11 11 11 12 11 11 10 10 10 10 10 10 10 10 9 9 9 9 9 9 8 8 6 6 7 9 10 7 5 7 7 6 6 6 6 7 5
11 11 12 12 12 11 10 10 10 10 10 10 10 10 9 9 9 9 9 9 9 8 8 7 7 8 9 9 9 7 6 7 6 6 6 5 5 3
11 11 11 11 11 10 10 10 10 10 10 10 10 9 9 9 9 9 8 8 8 8 8 8 8 6 6 7 9 8 6 5 5 6 6 6 7 6
11 11 11 11 10 10 10 10 11 11 11 11 10 10 9 9 9 8 8 8 9 8 8 8 7 7 8 9 9 9 7 6 4 4 4 5 6 8
11 11 11 10 10 10 10 11 11 11 11 10 10 9 9 9 8 8 8 8 8 8 9 9 8 8 9 9 9 8 8 7 6 6 5 3 3 4

GFSNE_con_lsi_141.txt.gz
Lid_Strength_Index
3 3 4 5 5 5 5 6 7 9 8 10 10 10 9 8 8 8 8 7 7 6 5 4 4 4 4 3 3 3 3 3 3 3 2 2 2 2
4 5 6 6 6 7 7 8 8 8 9 11 11 10 10 9 8 7 7 7 6 5 5 5 5 4 4 4 4 4 4 4 4 3 3 3 3 3
7 7 8 8 9 9 9 9 9 9 9 12 11 11 10 8 7 6 6 5 5 6 6 6 6 5 5 5 5 5 4 4 4 4 4 3 3 3
8 8 9 9 10 10 10 11 11 11 10 13 12 10 8 7 7 6 7 7 7 8 8 7 6 5 5 5 5 5 5 5 5 4 4 4 3 3
7 8 9 10 11 11 11 11 11 10 10 11 11 9 8 7 8 8 8 8 8 6 6 6 6 6 5 5 5 5 6 6 5 4 4 4 3 3
9 9 10 10 11 10 10 10 9 9 9 9 9 9 8 7 8 9 8 7 7 6 6 5 5 5 5 5 5 6 6 5 5 5 4 4 4 3
9 9 8 7 6 7 7 7 7 7 7 8 8 8 8 8 9 8 8 8 7 6 6 6 6 6 6 6 6 6 6 5 4 4 4 4 4 3
8 7 6 5 5 5 5 5 6 7 7 8 8 9 9 8 8 8 8 8 9 5 8 8 6 7 7 6 6 6 6 5 4 5 4 4 4 3
6 6 6 5 5 6 5 6 6 7 7 8 8 8 8 8 8 9 9 8 8 7 8 9 7 8 7 7 6 6 5 5 5 5 4 4 3 3
7 6 6 7 7 6 6 7 7 7 7 7 8 8 8 8 8 8 8 8 8 7 7 10 8 9 8 7 6 6 6 5 5 4 4 4 4 4
9 8 8 8 8 8 7 8 8 7 6 7 7 8 8 8 8 9 9 9 10 9 8 10 9 10 9 8 6 5 5 5 4 4 4 4 4 4
10 10 9 8 9 8 8 7 9 8 8 8 8 9 8 8 9 9 9 10 11 11 9 11 11 11 11 8 8 7 6 4 4 4 4 4 4 5
10 10 9 9 8 8 8 8 8 7 8 9 9 9 9 9 8 8 9 10 11 11 9 9 11 11 10 10 8 7 5 6 5 5 4 5 5 5
10 9 9 9 9 9 9 8 8 8 9 10 10 10 10 10 9 9 8 9 9 9 9 9 9 9 10 10 10 7 7 6 6 6 6 5 5 5
9 9 10 10 10 10 10 9 8 9 10 11 11 10 10 9 9 9 9 9 8 8 7 8 8 8 8 9 9 8 8 7 6 6 6 6 6 6
9 10 10 10 11 11 11 9 10 9 10 10 10 9 9 9 10 9 9 9 9 9 8 7 7 7 8 8 8 8 8 9 7 6 6 6 6 5
9 10 11 11 11 11 11 11 11 10 10 9 10 10 10 9 10 10 10 9 10 10 9 8 7 7 7 7 8 8 8 7 6 7 7 7 6 5
10 11 11 12 12 12 12 12 11 11 10 9 9 9 10 10 10 10 10 10 10 10 9 8 8 8 7 7 6 7 7 7 6 6 6 8 7 6
11 11 11 12 12 12 11 11 11 10 10 10 10 10 10 10 10 9 9 9 9 9 9 8 8 8 10 11 8 5 8 8 7 7 7 7 7 6
10 11 11 11 12 11 11 11 10 10 9 9 10 10 10 10 10 10 9 9 9 9 8 8 8 9 9 10 10 8 6 8 8 8 7 6 5 3
10 10 10 11 11 11 11 11 10 10 10 10 10 10 10 9 10 9 9 9 8 8 9 9 8 6 7 7 9 9 7 6 6 7 7 7 7 7
10 10 10 10 10 10 10 10 10 10 10 11 11 10 10 10 10 9 9 9 9 9 9 8 7 7 8 9 10 10 9 7 6 5 5 5 7 8
10 10 10 10 10 10 10 10 10 11 11 11 10 10 9 10 9 8 9 9 9 9 9 9 9 8 9 9 9 9 9 8 8 8 7 4 4 3

GFSNE_con_lsi_144.txt.gz
Lid_Strength_Index
4 5 6 7 7 7 7 8 9 11 10 11 11 12 10 10 9 9 10 7 7 7 6 6 6 4 4 3 3 3 3 4 4 3 3 3 3 3
6 7 6 7 8 8 8 8 8 8 10 11 11 11 11 9 9 9 9 7 6 6 6 6 5 5 4 4 5 5 5 4 4 3 3 3 3 3
7 8 8 8 9 9 8 8 8 8 9 12 11 11 11 11 10 10 9 10 9 7 6 6 6 6 6 6 5 5 4 4 4 4 4 4 3 3
8 8 9 8 9 9 9 10 10 10 10 13 12 12 10 10 10 10 9 9 10 8 7 6 6 6 5 5 5 5 5 5 5 4 4 4 4 3
8 9 9 9 10 11 11 12 11 10 11 11 12 10 9 9 10 10 10 10 9 6 6 6 6 5 5 5 5 5 5 6 5 5 5 4 4 4
9 9 10 10 11 11 11 11 10 10 9 9 9 9 9 9 10 11 11 9 9 7 6 6 5 5 5 5 5 6 6 6 6 5 5 5 4 4
10 10 10 8 7 7 8 8 8 9 9 9 10 11 11 11 11 10 10 10 10 9 10 10 10 9 9 7 7 6 6 6 5 5 5 5 5 5
10 9 7 6 6 5 5 5 7 10 10 11 11 12 12 11 11 12 12 12 12 10 11 11 10 10 9 9 6 6 6 6 6 6 6 5 5 5
8 8 7 6 7 8 6 6 7 7 8 11 12 12 12 12 12 12 12 12 12 11 11 12 11 11 10 9 7 7 7 6 6 6 5 5 5 4
9 10 10 10 9 8 9 10 10 9 9 9 11 11 11 10 9 9 11 11 11 10 11 13 11 12 11 11 7 7 6 6 6 5 5 4 4 4
11 10 11 12 8 8 10 11 12 10 7 7 7 8 8 8 9 11 12 11 13 12 12 13 13 13 12 12 10 7 7 6 5 4 4 3 4 4
12 12 8 10 8 8 11 11 12 11 10 10 10 9 8 9 8 11 12 13 11 14 10 13 13 12 14 12 11 10 9 6 5 5 4 3 4 7
12 12 11 9 8 8 8 10 10 10 10 11 11 10 10 9 9 9 9 10 11 11 10 10 11 11 12 11 10 10 10 9 8 7 5 4 4 5
12 11 10 8 8 9 9 8 9 9 11 12 12 11 11 10 10 9 9 9 9 10 9 10 10 11 11 11 11 10 9 7 7 8 7 6 5 5
11 10 9 9 10 10 10 10 9 11 12 13 13 12 11 10 9 9 9 9 9 9 8 9 9 9 9 10 10 10 8 8 8 7 7 7 7 6
10 11 11 11 10 11 11 10 10 11 12 12 12 11 10 10 10 10 10 10 10 10 9 8 8 8 9 10 10 10 9 9 8 7 7 7 7 6
11 12 13 12 12 12 11 11 11 11 11 11 11 12 11 10 10 10 10 11 11 11 11 9 8 7 8 9 10 10 10 9 7 7 7 8 7 7
12 13 13 12 12 12 12 12 11 11 11 11 11 10 10 10 10 10 10 11 11 11 10 9 9 9 9 9 6 9 10 10 9 9 9 10 9 8
13 13 13 12 12 12 12 12 12 11 11 11 11 11 10 10 10 11 11 10 10 10 10 9 8 9 11 12 10 6 10 9 10 10 10 9 8 7
12 13 13 12 12 12 11 11 11 11 11 11 10 10 10 11 12 11 10 11 11 10 10 9 9 9 10 10 10 9 7 9 9 9 10 9 7 4
11 12 12 12 12 12 11 12 12 12 11 11 10 10 11 11 11 11 10 10 9 9 10 10 8 6 7 7 10 10 9 7 7 8 8 9 8 7
11 11 11 11 11 12 11 11 11 10 10 11 11 11 11 10 11 10 10 10 10 10 9 9 8 8 9 10 11 10 10 8 7 6 5 5 8 9
11 11 12 12 12 11 11 11 10 11 11 11 11 11 10 10 10 10 10 10 9 9 9 10 9 8 9 9 9 10 9 9 9 9 8 5 4 4

GFSNE_con_lsi_147.txt.gz
Lid_Strength_Index
6 7 7 7 7 7 8 8 9 11 11 12 12 12 10 10 8 8 9 7 7 7 7 7 6 5 4 4 4 3 4 4 4 4 3 3 3 3
7 7 7 8 7 7 7 7 7 9 11 11 11 11 10 9 9 9 9 7 7 7 7 7 7 6 5 5 5 5 5 5 5 5 4 4 3 3
7 8 8 8 8 8 8 8 8 8 9 11 11 11 11 11 10 9 8 10 10 7 7 7 7 7 6 6 6 5 6 5 4 4 4 4 3 3
7 8 8 7 8 8 8 9 9 9 9 11 12 12 12 11 11 10 9 8 10 8 7 7 7 6 6 6 5 5 5 5 5 5 4 4 3 3
8 8 8 8 9 10 10 11 11 11 11 12 12 10 9 8 9 9 9 10 9 6 6 6 6 5 5 4 5 5 5 6 5 5 4 4 4 4
7 8 8 9 10 11 11 11 10 10 10 9 9 9 9 9 10 11 11 10 10 8 7 6 6 5 5 5 5 6 6 6 5 5 5 5 5 5
10 10 10 9 7 8 9 9 9 9 9 9 10 10 11 12 12 12 12 12 11 10 11 11 10 10 9 7 7 6 6 6 5 5 5 6 6 6
10 9 7 6 5 5 5 6 8 10 11 12 12 13 13 12 12 12 13 13 13 11 12 12 11 12 11 10 6 6 6 6 6 6 6 6 6 6
8 8 8 7 7 8 6 6 7 7 9 12 13 13 13 12 12 13 13 13 13 11 12 13 12 12 11 9 7 7 6 6 6 6 6 6 6 6
10 10 10 10 9 9 10 11 11 11 10 10 12 12 12 11 11 11 12 12 12 11 12 14 13 13 12 11 6 7 7 7 6 6 6 5 5 5
11 11 11 11 7 7 11 12 11 10 7 7 8 8 9 9 9 12 13 13 13 13 12 13 13 14 13 12 11 8 8 7 7 6 6 5 5 5
13 11 8 10 8 8 11 12 13 12 11 10 11 11 10 11 9 12 12 13 12 14 12 13 14 12 14 13 12 12 11 8 6 6 6 5 5 8
13 13 12 8 8 8 8 11 11 10 9 11 11 11 11 11 10 10 10 10 11 12 9 10 11 11 12 12 11 11 11 11 10 9 6 5 5 5
12 12 11 8 9 9 9 8 8 9 11 11 12 12 12 12 11 11 10 9 9 10 9 10 11 11 12 12 12 12 11 10 10 10 7 6 5 5
12 10 9 9 9 10 9 9 9 11 11 12 12 12 12 11 11 11 10 9 9 9 8 9 10 10 11 11 11 12 10 10 9 10 7 7 7 7
9 11 10 10 10 11 10 10 10 11 11 12 12 11 11 11 11 11 11 10 11 10 9 9 10 10 10 11 12 11 10 11 9 9 8 9 9 8
11 12 13 13 13 13 11 10 10 11 11 11 11 11 11 11 11 10 11 11 11 12 12 10 9 8 8 9 12 11 10 11 10 9 10 10 9 9
12 14 14 13 14 14 13 12 11 11 11 11 11 11 11 11 11 10 10 11 12 12 11 10 10 11 10 10 7 10 10 11 10 10 10 11 11 9
14 14 14 14 13 13 12 12 12 12 12 12 12 11 11 11 10 11 11 11 12 11 10 10 10 12 11 12 10 7 10 10 11 11 11 11 10 9
13 13 13 13 13 13 12 11 11 11 11 11 10 10 10 11 12 12 12 12 11 10 10 9 10 10 10 10 10 9 7 9 10 10 10 9 9 6
11 12 12 12 12 13 12 12 12 13 12 11 11 11 11 11 13 12 11 10 10 11 14 12 9 6 9 9 12 11 10 7 7 9 9 9 9 8
11 11 11 12 12 12 12 12 12 11 11 11 11 11 12 12 11 11 11 11 11 12 11 10 9 9 10 10 11 10 9 8 7 6 6 6 8 9
11 12 13 12 12 12 11 11 12 12 11 11 11 12 12 12 11 10 11 11 11 10 10 11 10 10 9 10 9 10 10 9 9 9 8 6 5 5

GFSNE_con_lsi_150.txt.gz
Lid_Strength_Index
6 7 7 8 7 8 8 7 8 11 11 11 12 12 11 11 8 8 8 6 6 6 7 7 7 6 6 6 6 5 5 5 4 4 4 3 3 3
7 8 8 8 8 8 9 8 8 9 10 10 10 11 10 10 8 10 10 8 7 7 7 8 7 7 6 6 6 6 6 5 5 5 5 5 5 3
8 8 8 8 8 7 7 7 7 7 9 10 11 11 12 11 10 10 10 11 10 7 7 7 7 6 6 6 6 6 6 6 5 5 5 4 3 3
8 8 8 7 8 8 8 8 8 8 8 9 12 12 12 11 11 10 9 9 9 7 6 6 6 6 6 5 5 5 6 6 5 5 5 4 4 3
7 7 7 8 8 9 9 10 10 10 10 11 12 11 10 9 10 10 10 10 8 6 6 5 6 6 5 5 5 5 6 6 6 6 5 5 5 4
7 7 7 8 9 10 11 11 11 11 10 10 10 10 9 10 10 12 12 11 11 9 7 6 6 6 6 6 6 6 7 6 6 5 5 5 6 5
9 9 9 8 8 9 10 10 10 10 9 10 10 10 12 12 13 12 13 12 12 12 11 11 11 11 10 8 7 6 6 6 6 6 6 6 6 6
10 9 8 6 5 5 5 6 8 10 12 12 13 13 14 13 13 13 13 13 14 11 12 12 12 12 12 11 6 6 7 6 6 6 6 6 6 5
8 8 7 7 7 8 6 6 7 7 9 12 14 14 14 14 14 14 14 14 14 12 13 14 13 13 12 10 7 6 7 6 6 6 6 6 6 6
10 10 10 10 9 10 11 11 11 11 11 11 13 13 13 13 13 13 14 14 13 13 13 14 13 14 13 12 7 7 7 7 7 7 7 6 6 6
11 11 11 10 6 7 11 12 11 10 7 7 8 8 8 9 11 13 15 15 15 14 13 14 14 14 14 13 11 8 8 8 7 7 7 7 6 6
12 11 8 10 8 8 12 13 13 12 11 11 11 10 9 11 8 13 14 15 15 15 11 13 14 12 15 13 13 12 12 9 8 7 7 6 6 7
13 13 12 8 8 8 9 12 11 11 10 11 11 11 11 10 10 10 10 11 13 13 10 10 11 11 11 12 12 12 13 12 11 10 7 6 5 5
13 12 11 8 8 8 9 7 7 8 10 11 11 12 12 12 11 11 11 10 10 11 10 10 11 11 12 12 14 13 13 11 11 11 10 6 5 5
12 9 8 9 9 10 9 8 9 10 11 11 12 12 12 11 11 10 10 10 10 10 9 10 11 11 12 14 12 14 11 12 11 11 10 10 9 8
9 11 11 11 10 11 11 10 10 10 11 11 11 11 10 11 11 11 12 11 12 11 10 10 10 11 13 12 13 13 12 12 10 10 10 9 9 9
11 13 13 13 14 13 12 11 10 10 11 10 10 11 11 11 11 11 12 12 13 13 12 10 10 11 10 11 13 12 12 11 10 10 11 11 10 10
12 13 14 14 14 14 14 13 12 11 11 11 12 12 12 11 12 11 11 12 12 11 12 11 12 12 11 11 8 12 11 12 11 11 11 11 11 10
13 13 13 13 13 13 13 13 13 11 12 12 12 12 11 11 10 11 12 11 12 12 11 11 11 12 13 13 10 6 11 10 11 11 11 11 10 9
11 11 12 13 13 13 12 12 11 11 12 11 10 9 10 11 12 12 13 13 12 11 11 12 12 12 11 11 11 10 7 10 11 12 10 9 8 6
10 11 12 12 13 13 12 12 12 12 12 11 12 12 11 11 12 13 12 11 11 12 14 13 11 7 9 10 11 10 9 7 7 9 9 9 10 10
10 12 12 12 12 12 12 12 12 13 13 12 12 12 12 12 13 13 12 11 12 12 12 11 10 10 11 11 11 11 10 9 7 6 6 6 8 10
10 12 13 12 12 13 13 13 13 13 11 11 11 12 11 11 10 11 12 12 10 11 12 12 11 10 10 10 10 12 12 11 10 10 9 6 6 5